Location: Gadern
(49.5873°N, 8.8138°E)
Time: 00:00:56
(UTC+00:00)

Iridium 4 Rocket - Pass Details

Date: 19 May 2025
Orbit: 582 x 886 km, 86.9° (Epoch: 22 June)

Event Time Altitude Azimuth Distance (km) Brightness Sun altitude
Rises 19:58:37 0° 357° (N) 3,142 7.5 -7.3°
Reaches altitude 10° 20:00:51 10° 358° (N) 2,262 6.7 -7.5°
Maximum altitude 20:05:57 85° 87° (E) 798 3.6 -8.1°
Drops below altitude 10° 20:11:27 10° 177° (S) 2,436 5.7 -8.7°
Enters shadow 20:13:25 - 177° (S) 3,206 6.3 -9.0°
